Weather in Narechen

Bulgaria     41°53′57″N   24°44′55″E
temp.,
°C
wind,
m/s
gust,
m/s
humid.,
%
clouds,
%
prec.,
mm/h
press.,
hPa
HPBL,
m
20 june, sun
sun2000:00+14sw229312 0.4 101423
03:00+13sw22935 0.4 101427
06:00+12sw229277 0.0 101422
09:00+16wnw238555 0.0 1014194
12:00+21nnw34555 0.0 10131077
15:00+21n336135 0.5 10121339
18:00+19n127253 0.9 1012807
21:00+15sw22905 2.1 101317
21 june, mon
mon2100:00+14sw32919 0.3 101431
03:00+13ssw329299 0.3 101332
06:00+13sw329188 0.0 101335
09:00+19nw127393 0.0 1013264
12:00+23n34495 0.0 10121287
15:00+25n35454 0.0 10121441
18:00+24ne22500 0.0 10111176
21:00+18s2276100 0.1 101215
22 june, tue
tue2200:00+16sw328516 0.2 101431
03:00+15sw32875 0.3 101332
06:00+15sw328881 0.0 101334
09:00+22nw23616 0.0 1013436
12:00+26n345016 0.0 1013844
15:00+27n364798 0.0 10131518
18:00+27nne2352100 0.0 1013836
21:00+21ssw22746 0.0 101416
23 june, wed
wed2300:00+19ssw327211 0.0 101535
03:00+18sw32810 0.1 101529
06:00+18sw32790 0.0 101535
09:00+25nw23610 0.0 1015365
12:00+28nnw46430 0.0 10151492
15:00+30nnw36370 0.0 10152280
18:00+30nnw57340 0.0 10152284
21:00+22ssw21620 0.0 101712
24 june, thu
thu2400:00+21sw44622 0.0 101848
03:00+20sw33630 0.0 101844
06:00+20ssw33640 0.1 101842
09:00+27nw24480 0.1 1017373
12:00+30nnw46370 0.0 10171198
15:00+32nne36360 0.0 10162163
18:00+31ne35350 0.0 10162176
21:00+23sse22650 0.0 101827